Regional Weather Roundup
Issued by NWS

Home | Current Version | Previous Version | Text Only | Print | Product List | Glossary On
Versions: 1 2 3 4 5 6 7 8 9 10 11 12 13 14 15 16 17 18 19 20 21 22 23 24 25 26 27 28 29 30 31 32 33 34 35 36 37 38 39 40 41 42 43 44 45 46 47 48 49 50
000
ASUS42 KFFC 221303
RWRGA
WEATHER ROUNDUP FOR GEORGIA
NATIONAL WEATHER SERVICE PEACHTREE CITY GA
900 AM EDT SUN APR 22 2018

NOTE: "FAIR" INDICATES FEW OR NO CLOUDS BELOW 12,000 FEET WITH NO
SIGNIFICANT WEATHER AND/OR OBSTRUCTIONS TO VISIBILITY.

* = USE WITH CAUTION. THE STATIONS MARKED WITH AN ASTERISK MAY NOT
REPORT WEATHER SUCH AS PRECIPITATION, FOG, OR THUNDER AND ARE NOT
QUALITY CONTROLLED BY NWS.

THE REMARK "TC" DENOTES TEMPERATURE READING IN DEGREES CELSIUS.

GAZ001>058-221400-
NORTH GEORGIA

CITY           SKY/WX    TMP DP  RH WIND       PRES   REMARKS
ATLANTA        CLOUDY    59  55  87 SE12      30.23S
ATHENS         CLOUDY    58  53  84 E8        30.28F
CHAMBLEE       CLOUDY    58  52  80 VRB6      30.23S
PEACHTREE CITY CLOUDY    61  54  77 E7        30.22R
ROME           LGT RAIN  58  55  90 NE6       30.19S
WEST ATLANTA   CLOUDY    61  55  81 E10       30.23R
GAINESVILLE    PTSUNNY   57  49  74 E14       30.27F
CARTERSVILLE   CLOUDY    59  54  83 E9        30.21S


CITY           SKY/WX    TMP DP  RH WIND       PRES   REMARKS
DALTON*        CLOUDY    61  54  77 SE8       30.22F
LAWRENCEVILLE* PTSUNNY   58  51  78 E9        30.24F
MARIETTA       CLOUDY    58  54  85 E13       30.23R
KENNESAW*      CLOUDY    58  54  86 E8        30.23S
CANTON*        CLOUDY    61  46  59 E8G17     30.25F
BLAIRSVILLE*   PTSUNNY   58  49  72 E10       30.27S
$$

GAZ059>098-102>109-221400-
CENTRAL GEORGIA

CITY           SKY/WX    TMP DP  RH WIND       PRES   REMARKS
AUGUSTA-BUSH   CLOUDY    62  53  72 E7        30.30S
AUGUSTA-DANIEL PTSUNNY   63  52  67 E9        30.30F
COLUMBUS       CLOUDY    62  57  83 SE9       30.18S
MACON          CLOUDY    62  55  77 E8        30.23S
ROBINS AFB     CLOUDY    62  55  80 SE7       30.22S


CITY           SKY/WX    TMP DP  RH WIND       PRES   REMARKS
LAGRANGE*      CLOUDY    61  61  99 SE7       30.18F
SYLVANIA*      FAIR      61  57  88 E5        30.29S
MILLEDGEVILLE* CLOUDY    61  54  77 E12       30.25F
$$

GAZ099>101-110>166-221400-
SOUTH GEORGIA

CITY           SKY/WX    TMP DP  RH WIND       PRES   REMARKS
SAVANNAH       PTSUNNY   67  59  75 E9        30.27F
VALDOSTA       CLOUDY    66  59  78 SE8       30.19R
ALMA           LGT RAIN  63  60  90 CALM      30.23S FOG
ST SIMONS      CLOUDY    69  63  81 E9        30.24R
FT STEWART     FAIR      66  58  75 E8        30.23S
ALBANY         PTSUNNY   65  61  87 E7        30.20S
HUNTER AFB     FAIR      68  56  65 E14       30.23F
MOODY AFB      CLOUDY    65  59  83 E8        30.18S
BRUNSWICK      CLOUDY    68  61  77 E10       30.25R


CITY           SKY/WX    TMP DP  RH WIND       PRES   REMARKS
BAINBRIDGE*      N/A     70  64  83 SE12      30.16S
MOULTRIE*      FAIR      64  61  88 E6        30.19S
VIDALIA*       CLOUDY    64  59  82 E7        30.25S
WAYCROSS*      CLOUDY    64  61  90 E9        30.22S
DOUGLAS*       CLOUDY    63  59  88 E7        30.23S
$$




USA.gov is the U.S. government's official web portal to all federal, state and local government web resources and services.